www.pogodaiklimat.ru

Погода и климат >> Архив погоды >> Гана >> Солтпонд


ПОГОДА в Солтпонде

  • Прогноз погоды в Солтпонде
  • Монитор погоды в Солтпонде

АРХИВ ПОГОДЫ в Солтпонде

Время (UTC), дата Ветер
(напр.,м/с)
 
Видим.   Явления Облачность Т
(С)
Тd
(С)
f
(%)
Тe
(С)
Тes
(С)
Комфортность P
(гПа)
Po
(гПа)
Тmin
(С)
Tmax
(С)
R
(мм)
R24
(мм)
S
(см)
00 20.03 ЮЗ 1 16 км ясно +28.0 +26.0 89 +42 +42 опасность
перегрева
1010.0 1004.6
09 20.03 ЮЗ 1 18 км 8/0
[Cs]
+29.5 +26.0 81 +44 +55 опасность
перегрева
1011.0 1005.6
12 20.03 ЮЗ 3 20 км 8/4 480 м
[Cu med, cong Cs]
+32.0 +27.4 77 +51 +61 опасность
перегрева
1009.9 1004.6
15 20.03 ЮЗ 3 10 км 8/1 480 м
[Cu med, cong Ci sp]
+32.0 +26.7 74 +49 +56 опасность
перегрева
1006.6 1001.3
21 20.03 ЮЗ 2 13 км 3/3 330 м
[Sc]
+29.5 +26.5 84 +45 +45 опасность
перегрева
1009.4 1004.1
06 21.03 СЗ 1 18 км ясно +26.7 +25.8 95 +40 +40 очень
душно
1008.8 1003.4 +26.0
09 21.03 ЮЗ 2 18 км в посл. час гроза 6/3 450 м
[Cu hum Ci sp]
+29.9 +26.2 81 +46 +52 опасность
перегрева
1011.1 1005.8
12 21.03 ЮЗ 4 18 км {гроза} 8/3 450 м
[Cu med, cong Ac trans Ci ing]
+31.6 +27.4 78 +50 +57 опасность
перегрева
1009.2 1003.9
15 21.03 З 5 18 км 9/1 480 м
[Cb cap Cs]
+31.0 +26.8 78 +48 +52 опасность
перегрева
1005.9 1000.6
18 21.03 ЮЗ 4 18 км 9/1 900 м
[Cb cap Cs]
+29.2 +25.9 82 +44 +44 опасность
перегрева
1006.6 1001.3 +32.4
21 21.03 СЗ 1 16 км в посл. час гроза {дождь} 9/4 330 м
[Sc Ac trans]
+25.0 +23.3 90 +33 +33 очень
душно
1009.5 1004.1
00 22.03 штиль 0 16 км {гроза, дождь} 9/0
[Ac trans Cs]
+24.4 +23.4 94 +33 +33 очень
душно
1010.6 1005.2 0.6
12 22.03 С 1 16 км в посл. час гроза {дождь} 9/4 330 м
[Sc Ac As]
+24.2 +23.1 94 +32 +39 очень
душно
1009.7 1004.3 11
15 22.03 ЮЗ 1 18 км 8/3 360 м
[Cu Sc Ac trans Cs]
+28.0 +24.8 83 +40 +46 очень
душно
1008.1 1002.7
18 22.03 ЮЗ 1 18 км 8/1 330 м
[Sc Ac trans Cs]
+28.0 +24.6 82 +40 +40 очень
душно
1007.4 1002.0 +29.0 11
21 22.03 штиль 0 16 км 9/0
[Ac trans Cs]
+25.8 +24.4 92 +36 +36 очень
душно
1010.3 1004.9
00 23.03 штиль 0 14 км 9/0
[Ac trans Cs]
+25.1 +24.1 94 +35 +35 очень
душно
1011.3 1005.9
03 23.03 З 1 14 км 9/0
[Ac trans Cs]
+24.5 +23.7 95 +33 +33 очень
душно
1009.7 1004.3
06 23.03 штиль 0 16 км 9/1 330 м
[Sc Ac trans]
+24.6 +23.9 96 +34 +34 очень
душно
1010.0 1004.6 +22.2 11
15 23.03 ЮЗ 3 20 км 5/3 480 м
[Cu med, cong Ci sp]
+30.5 +26.5 79 +47 +54 опасность
перегрева
1009.3 1004.0
18 23.03 ЮЗ 4 18 км 4/1 480 м
[Cu med, cong Ci sp]
+28.7 +25.8 84 +43 +43 опасность
перегрева
1009.2 1003.8 +31.8
21 23.03 ЮЗ 3 16 км ясно +28.3 +25.6 85 +42 +42 опасность
перегрева
1010.5 1005.1
03 24.03 ЮЗ 1 16 км 4/0
[Ac trans]
+26.3 +25.6 96 +39 +39 очень
душно
1008.6 1003.2
06 24.03 штиль 0 16 км 1/1 330 м
[Sc]
+25.8 +25.0 95 +37 +37 очень
душно
1009.8 1004.4 +25.2
09 24.03 ЮЗ 2 18 км 5/5 330 м
[Cu Sc]
+30.0 +27.4 86 +48 +53 опасность
перегрева
1011.3 1006.0
18 24.03 ЮЗ 2 18 км 4/4 330 м
[Sc]
+29.5 +26.9 86 +46 +46 опасность
перегрева
1010.0 1004.7 +32.2
00 25.03 ЮЗ 2 16 км {гроза, дождь} 9/4 330 м
[Sc Ac trans Cs]
+23.0 +22.4 96 +31 +31 очень
душно
1013.2 1007.7 7
03 25.03 штиль 0 16 км гроза без осадков 8/1 330 м
[Cb cap Ac trans Cs]
+23.2 +22.5 96 +32 +32 очень
душно
1010.8 1005.3
09 25.03 ЮЗ 2 18 км 9/1 360 м
[Cu Sc Ac trans Cs]
+27.8 +24.7 83 +39 +45 очень
душно
1012.0 1006.6
12 25.03 ЮЗ 2 20 км 8/3 400 м
[Cu Sc Ac trans Cs]
+30.2 +26.6 81 +47 +56 опасность
перегрева
1011.8 1006.5
15 25.03 ЮЗ 3 20 км 3/1 450 м
[Cu med, cong Ac trans Ci sp]
+31.0 +26.5 77 +47 +55 опасность
перегрева
1009.1 1003.8
18 25.03 ЮЗ 3 18 км 5/1 330 м
[Cb cap Ci sp]
+29.0 +25.5 81 +43 +43 опасность
перегрева
1009.2 1003.8 +31.0
21 25.03 ЮЗ 2 18 км 3/3 330 м
[Sc]
+28.0 +26.0 89 +42 +42 опасность
перегрева
1011.5 1006.1
03 26.03 ЮЗ 2 18 км 9/9 330 м
[Sc Ac cuf Cs]
+28.0 +26.3 91 +43 +43 опасность
перегрева
1010.3 1004.9
09 26.03 ЮЗ 1 20 км 4/4 480 м
[Cu med, cong]
+29.5 +26.2 82 +45 +52 опасность
перегрева
1011.5 1006.1
12 26.03 ЮЗ 1 20 км 4/4 480 м
[Cu med, cong]
+31.0 +26.5 77 +47 +63 опасность
перегрева
1011.0 1005.7
15 26.03 ЮЗ 2 20 км 1/1 480 м
[Cu med, cong]
+31.2 +25.3 71 +45 +56 опасность
перегрева
1008.7 1003.4
18 26.03 ЮЗ 1 18 км 1/1 900 м
[Cb cap]
+29.3 +25.8 81 +43 +43 опасность
перегрева
1008.8 1003.5 +31.5

 

Местоположение метеостанции Солтпонд (Гана): широта 5.20 долгота -1.07 высота над уровнем моря 47 м.

В архиве по умолчанию представлена погода в Солтпонде за последнюю неделю. Архивные данные за месяц целиком и за предыдущие месяцы, начиная с января 2011 года, Вы можете получить, выбрав интересующий диапазон дат из раскрывающегося списка и нажав кнопку "Ввод!".


*Определитесь, кто Вы:
робот инопланетянин человек

Внимание! Время в таблицах - всемирное. Для получения местного времени необходимо прибавить поправку, которая равна 1 ч.

Смотрите также архив погоды в соседних городах и на ближайших метеорологических станциях:

Погода в Аким Ода (Гана) (82 км)
Погода Такоради (Гана) (85 км)
Погода в Аккра (Гана) (109 км)
Погода в Тема (Гана) (127 км)
Погода в Кофоридуа (Гана) (133 км)
Погода в Аксиме (Гана) (134 км)
Погода в Акюсе (Гана) (165 км)
Погода в Абетифи (Гана) (167 км)
Погода в Сефви Беквай (Гана) (178 км)
Погода в Кумаси (Гана) (179 км)

Пояснения к столбцам:

Ветер - указаны скорость ветра в м/с - средняя за 10 мин, порывы в срок и между сроками (в фигурных скобках) и направление, откуда дует ветер: С - северный, СВ - северо-восточный, В - восточный, ЮВ - юго-восточный, Ю - южный, ЮЗ - юго-западный, З - западный, СЗ - северо-западный.
Видимость - горизонтальная дальность видимости в метрах или километрах. При видимости от 1 до 10 км при отсутствии осадков обычно наблюдается дымка, при ухудшении видимости до 1 км и менее - туман. В сухую погоду видимость может ухудшаться дымом, пылью или мглою.
Явления - указаны атмосферные явления, наблюдавшиеся в срок или в последний час перед сроком; фигурными скобками обозначены явления, наблюдавшиеся между сроками (за 1-3 часа до срока); квадратными скобками обозначены град или гололедные отложения с указанием их диаметра в мм.
Облачность - указаны через наклонную черту общая и нижняя облачность в баллах и высота нижней границы облаков в метрах; квадратными скобками обозначены формы облаков: Ci - перистые, Cs - перисто-слоистые, Cc - перисто-кучевые, Ac - высококучевые, As - высокослоистые, Sc - слоисто-кучевые, Ns - слоисто-дождевые, Cu - кучевые, Cb - кучево-дождевые. Подробнее классификацию облаков см. в Атласе облаков (PDF).
T - Температура воздуха - температура, измеренная на высоте 2 м над землей.
Td - Температура точки росы - температура, при понижении до которой содержащийся в воздухе водяной пар достигнет насыщения.
f - Относительная влажность воздуха - влажноcть воздуха, измеренная на высоте 2 м над землей.
Te - Эффективная температура - температура, которую ощущает одетый по сезону человек в тени. Характеристика душности погоды. При расчете учитывается влияние влажности воздуха и скорости ветра на теплоощущения человека.
Tes - Эффективная температура на солнце - температура, которую ощущает человек, с поправкой на солнечный нагрев. Характеристика знойности погоды. Зависит от высоты солнца над горизонтом, облачности и скорости ветра. Ночью, в пасмурную погоду, а также при ветре 12 м/с и более поправка равна нулю.
P - Атмосферное давление - приведенное к уровню моря атмосферное давление.
Po - Атмосферное давление - измеренное на уровне метеостанции атмосферное давление.
Tmin - Минимальная температура - минимум температуры воздуха на высоте 2 м над землей.
Tmax - Максимальная температура - максимум температуры воздуха на высоте 2 м над землей.
R - Количество осадков - Количество выпавших осадков за период времени, мм. При наведении курсора мыши на число - период времени, за который выпало указанное количество осадков.
R24 - Количество осадков - Количество выпавших осадков за 24 часа, мм.
S - Снежный покров - Высота снежного покрова, см. При наведении курсора мыши на число - состояние снежного покрова и степень покрытия местности в баллах.